カタログに戻る

ATLAS CENTAUR R/B

運用中HEO
NORAD 15874·ROCKET BODY·🇺🇸 United States

打ち上げ Jun 30, 1985 から Cape Canaveral Space Force Station

Loading…

次のパス (今後24時間)

TLE

最新Source: Space-Track

元期: Sep 12, 2026, 02:51 UTC

1 15874U 85055B   26255.11882853  .00003607  00000-0  12703-2 0  9995
2 15874  23.1428 275.4536 6454549  60.7700 348.3468  3.36230357440248

AllMySatでATLAS CENTAUR R/Bをリアルタイム追跡

Download on the App Store